P/2017 W3 ( Gibbs )

Japanese version
Home page
Updated on May 21, 2018

---------------------------------------------------------------------

* Profile

Discovery Date November 27, 2017
Magnitude 19.2 mag
Discoverer Alex R. Gibbs (Catalina Sky Survey)

* Pictures

* Orbital Elements

Epoch 2018 Feb. 11.0 TT = JDT 2458160.5
T 2018 Feb. 24.94782 TT                                 MPCW
q   3.8373377            (2000.0)            P               Q
n   0.04580990     Peri.  326.44030     -0.98447956     -0.07053274
a   7.7356437      Node   210.75432     +0.09192676     -0.98726442
e   0.5039407      Incl.   18.31646     -0.14949740     -0.14259764
P  21.52
From 105 observations 2017 Nov. 27-2018 Mar. 21, mean residual 0".6.

* Magnitudes Graph

        m1 = 10.0 + 5 log d + 10.0 log r

---------------------------------------------------------------------

The orbital elements are published on M.P.E.C. 2018-F152.
The magnitudes graphs are made with Comet for Windows.

---------------------------------------------------------------------

Copyright(C) Seiichi Yoshida (comet@aerith.net). All rights reserved.